contact:dominique.lefevre@mio.osupytheas.fr, maurice.libes@osupytheas.fr, didier.mallarino@osupytheas.fr
Project:EMSO http://www.emso-fr.org/EMSO-France
Depth: 2436.0 m
Title:EMSO Ligure Ouest : Data MII capteur MICROCAT
DateTime_Computer,Latitude,Longitude,Temperature,Conductivity,Pressure,DateTime_Instrument
DateTime_Computer,Latitude,Longitude,degC,S m-1,dbar,DateTime_Instrument
2023-12-07T00:00:21Z,42.805,6.029,13.3089,4.60185,2470.763,2023-12-07T02:02:50Z
2023-12-07T00:03:24Z,42.805,6.029,13.3066,4.60194,2470.75,2023-12-07T02:05:53Z
2023-12-07T00:06:27Z,42.805,6.029,13.3085,4.60192,2470.81,2023-12-07T02:08:56Z
2023-12-07T00:09:30Z,42.805,6.029,13.3088,4.60186,2470.81,2023-12-07T02:11:59Z
2023-12-07T00:12:33Z,42.805,6.029,13.3093,4.60158,2470.81,2023-12-07T02:15:02Z
2023-12-07T00:15:36Z,42.805,6.029,13.3094,4.60156,2470.787,2023-12-07T02:18:05Z
2023-12-07T00:18:39Z,42.805,6.029,13.3068,4.60157,2470.777,2023-12-07T02:21:08Z
2023-12-07T00:21:42Z,42.805,6.029,13.3101,4.60160,2470.777,2023-12-07T02:24:11Z
2023-12-07T00:24:45Z,42.805,6.029,13.3132,4.60155,2470.8,2023-12-07T02:27:14Z
2023-12-07T00:27:48Z,42.805,6.029,13.3102,4.60165,2470.81,2023-12-07T02:30:17Z
2023-12-07T00:30:51Z,42.805,6.029,13.3068,4.60137,2470.824,2023-12-07T02:33:21Z
2023-12-07T00:33:55Z,42.805,6.029,13.3051,4.60157,2470.824,2023-12-07T02:36:24Z
2023-12-07T00:36:58Z,42.805,6.029,13.3054,4.60185,2470.787,2023-12-07T02:39:27Z
2023-12-07T00:40:01Z,42.805,6.029,13.3073,4.60142,2470.787,2023-12-07T02:42:30Z
2023-12-07T00:43:04Z,42.805,6.029,13.3075,4.60157,2470.787,2023-12-07T02:45:33Z
2023-12-07T00:46:07Z,42.805,6.029,13.3071,4.60186,2470.824,2023-12-07T02:48:36Z
2023-12-07T00:49:10Z,42.805,6.029,13.3070,4.60137,2470.824,2023-12-07T02:51:39Z
2023-12-07T00:52:13Z,42.805,6.029,13.3076,4.60137,2470.81,2023-12-07T02:54:42Z
2023-12-07T00:55:16Z,42.805,6.029,13.3091,4.60137,2470.81,2023-12-07T02:57:45Z
2023-12-07T00:58:19Z,42.805,6.029,13.3071,4.60138,2470.787,2023-12-07T03:00:48Z
2023-12-07T01:01:22Z,42.805,6.029,13.3084,4.60142,2470.787,2023-12-07T03:03:51Z
2023-12-07T01:04:25Z,42.805,6.029,13.3091,4.60155,2470.81,2023-12-07T03:06:54Z
2023-12-07T01:07:28Z,42.805,6.029,13.3088,4.60161,2470.777,2023-12-07T03:09:57Z
2023-12-07T01:10:31Z,42.805,6.029,13.3095,4.60145,2470.81,2023-12-07T03:13:01Z
2023-12-07T01:13:35Z,42.805,6.029,13.3084,4.60145,2470.81,2023-12-07T03:16:04Z
2023-12-07T01:16:38Z,42.805,6.029,13.3074,4.60149,2470.8,2023-12-07T03:19:07Z
2023-12-07T01:19:41Z,42.805,6.029,13.3090,4.60133,2470.8,2023-12-07T03:22:10Z
2023-12-07T01:22:44Z,42.805,6.029,13.3084,4.60127,2470.824,2023-12-07T03:25:13Z
2023-12-07T01:25:47Z,42.805,6.029,13.3071,4.60129,2470.824,2023-12-07T03:28:16Z
2023-12-07T01:28:50Z,42.805,6.029,13.3072,4.60128,2470.8,2023-12-07T03:31:19Z
2023-12-07T01:31:53Z,42.805,6.029,13.3047,4.60123,2470.81,2023-12-07T03:34:22Z
2023-12-07T01:34:56Z,42.805,6.029,13.3046,4.60128,2470.81,2023-12-07T03:37:25Z
2023-12-07T01:37:59Z,42.805,6.029,13.3076,4.60122,2470.824,2023-12-07T03:40:28Z
2023-12-07T01:41:02Z,42.805,6.029,13.3051,4.60122,2470.847,2023-12-07T03:43:31Z
2023-12-07T01:44:05Z,42.805,6.029,13.3042,4.60130,2470.81,2023-12-07T03:46:34Z
2023-12-07T01:47:08Z,42.805,6.029,13.3037,4.60129,2470.81,2023-12-07T03:49:37Z
2023-12-07T01:50:11Z,42.805,6.029,13.3144,4.60130,2470.857,2023-12-07T03:52:41Z
2023-12-07T01:53:15Z,42.805,6.029,13.3048,4.60123,2470.857,2023-12-07T03:55:44Z
2023-12-07T01:56:18Z,42.805,6.029,13.3044,4.60123,2470.847,2023-12-07T03:58:47Z
2023-12-07T01:59:21Z,42.805,6.029,13.3049,4.60131,2470.833,2023-12-07T04:01:50Z
2023-12-07T02:02:24Z,42.805,6.029,13.3041,4.60123,2470.847,2023-12-07T04:04:53Z
2023-12-07T02:05:27Z,42.805,6.029,13.3041,4.60122,2470.833,2023-12-07T04:07:56Z
2023-12-07T02:08:30Z,42.805,6.029,13.3042,4.60124,2470.81,2023-12-07T04:10:59Z
2023-12-07T02:11:33Z,42.805,6.029,13.3039,4.60123,2470.847,2023-12-07T04:14:02Z
2023-12-07T02:14:36Z,42.805,6.029,13.3041,4.60143,2470.833,2023-12-07T04:17:05Z
2023-12-07T02:17:39Z,42.805,6.029,13.3041,4.60125,2470.81,2023-12-07T04:20:08Z
2023-12-07T02:20:42Z,42.805,6.029,13.3039,4.60135,2470.847,2023-12-07T04:23:11Z
2023-12-07T02:23:45Z,42.805,6.029,13.3039,4.60125,2470.847,2023-12-07T04:26:14Z
2023-12-07T02:26:48Z,42.805,6.029,13.3039,4.60119,2470.824,2023-12-07T04:29:17Z
2023-12-07T02:29:51Z,42.805,6.029,13.3037,4.60121,2470.857,2023-12-07T04:32:21Z
2023-12-07T02:32:55Z,42.805,6.029,13.3040,4.60122,2470.833,2023-12-07T04:35:24Z
2023-12-07T02:35:58Z,42.805,6.029,13.3041,4.60119,2470.847,2023-12-07T04:38:27Z
2023-12-07T02:39:01Z,42.805,6.029,13.3039,4.60120,2470.824,2023-12-07T04:41:30Z
2023-12-07T02:42:04Z,42.805,6.029,13.3041,4.60122,2470.857,2023-12-07T04:44:33Z
2023-12-07T02:45:07Z,42.805,6.029,13.3041,4.60126,2470.833,2023-12-07T04:47:36Z
2023-12-07T02:48:10Z,42.805,6.029,13.3040,4.60122,2470.81,2023-12-07T04:50:39Z
2023-12-07T02:51:13Z,42.805,6.029,13.3037,4.60119,2470.833,2023-12-07T04:53:42Z
2023-12-07T02:54:16Z,42.805,6.029,13.3041,4.60122,2470.847,2023-12-07T04:56:45Z
2023-12-07T02:57:19Z,42.805,6.029,13.3043,4.60121,2470.833,2023-12-07T04:59:48Z
2023-12-07T03:00:22Z,42.805,6.029,13.3041,4.60122,2470.833,2023-12-07T05:02:51Z
2023-12-07T03:03:25Z,42.805,6.029,13.3039,4.60119,2470.833,2023-12-07T05:05:54Z
2023-12-07T03:06:28Z,42.805,6.029,13.3043,4.60126,2470.833,2023-12-07T05:08:57Z
2023-12-07T03:09:31Z,42.805,6.029,13.3040,4.60119,2470.824,2023-12-07T05:12:00Z
2023-12-07T03:12:34Z,42.805,6.029,13.3039,4.60120,2470.857,2023-12-07T05:15:04Z
2023-12-07T03:15:38Z,42.805,6.029,13.3039,4.60119,2470.847,2023-12-07T05:18:07Z
2023-12-07T03:18:41Z,42.805,6.029,13.3040,4.60119,2470.833,2023-12-07T05:21:10Z
2023-12-07T03:21:44Z,42.805,6.029,13.3039,4.60119,2470.833,2023-12-07T05:24:13Z
2023-12-07T03:24:47Z,42.805,6.029,13.3037,4.60127,2470.871,2023-12-07T05:27:16Z
2023-12-07T03:27:50Z,42.805,6.029,13.3041,4.60122,2470.833,2023-12-07T05:30:19Z
2023-12-07T03:30:53Z,42.805,6.029,13.3039,4.60122,2470.833,2023-12-07T05:33:22Z
2023-12-07T03:33:56Z,42.805,6.029,13.3041,4.60125,2470.833,2023-12-07T05:36:25Z
2023-12-07T03:36:59Z,42.805,6.029,13.3041,4.60123,2470.824,2023-12-07T05:39:28Z
2023-12-07T03:40:02Z,42.805,6.029,13.3041,4.60122,2470.833,2023-12-07T05:42:31Z
2023-12-07T03:43:05Z,42.805,6.029,13.3039,4.60122,2470.787,2023-12-07T05:45:34Z
2023-12-07T03:46:08Z,42.805,6.029,13.3039,4.60129,2470.847,2023-12-07T05:48:37Z
2023-12-07T03:49:11Z,42.805,6.029,13.3041,4.60127,2470.824,2023-12-07T05:51:40Z
2023-12-07T03:52:14Z,42.805,6.029,13.3041,4.60128,2470.81,2023-12-07T05:54:44Z
2023-12-07T03:55:18Z,42.805,6.029,13.3037,4.60122,2470.81,2023-12-07T05:57:47Z
2023-12-07T03:58:21Z,42.805,6.029,13.3040,4.60126,2470.787,2023-12-07T06:00:50Z
2023-12-07T04:01:24Z,42.805,6.029,13.3041,4.60131,2470.81,2023-12-07T06:03:53Z
2023-12-07T04:04:27Z,42.805,6.029,13.3039,4.60127,2470.81,2023-12-07T06:06:56Z
2023-12-07T04:07:30Z,42.805,6.029,13.3042,4.60119,2470.833,2023-12-07T06:09:59Z
2023-12-07T04:10:33Z,42.805,6.029,13.3040,4.60125,2470.833,2023-12-07T06:13:02Z
2023-12-07T04:13:36Z,42.805,6.029,13.3039,4.60122,2470.833,2023-12-07T06:16:05Z
2023-12-07T04:16:39Z,42.805,6.029,13.3044,4.60125,2470.833,2023-12-07T06:19:08Z
2023-12-07T04:19:42Z,42.805,6.029,13.3039,4.60123,2470.833,2023-12-07T06:22:11Z
2023-12-07T04:22:45Z,42.805,6.029,13.3040,4.60121,2470.833,2023-12-07T06:25:14Z
2023-12-07T04:25:48Z,42.805,6.029,13.3039,4.60122,2470.824,2023-12-07T06:28:17Z
2023-12-07T04:28:51Z,42.805,6.029,13.3042,4.60119,2470.833,2023-12-07T06:31:20Z
2023-12-07T04:31:54Z,42.805,6.029,13.3043,4.60127,2470.824,2023-12-07T06:34:24Z
2023-12-07T04:34:58Z,42.805,6.029,13.3039,4.60123,2470.81,2023-12-07T06:37:27Z
2023-12-07T04:38:01Z,42.805,6.029,13.3038,4.60119,2470.81,2023-12-07T06:40:30Z
2023-12-07T04:41:04Z,42.805,6.029,13.3041,4.60119,2470.81,2023-12-07T06:43:33Z
2023-12-07T04:44:07Z,42.805,6.029,13.3039,4.60121,2470.81,2023-12-07T06:46:36Z
2023-12-07T04:47:10Z,42.805,6.029,13.3041,4.60122,2470.824,2023-12-07T06:49:39Z
2023-12-07T04:50:13Z,42.805,6.029,13.3047,4.60119,2470.81,2023-12-07T06:52:42Z
2023-12-07T04:53:16Z,42.805,6.029,13.3050,4.60125,2470.81,2023-12-07T06:55:45Z
2023-12-07T04:56:19Z,42.805,6.029,13.3069,4.60119,2470.824,2023-12-07T06:58:48Z
2023-12-07T04:59:22Z,42.805,6.029,13.3068,4.60125,2470.824,2023-12-07T07:01:51Z
2023-12-07T05:02:25Z,42.805,6.029,13.3041,4.60120,2470.824,2023-12-07T07:04:54Z
2023-12-07T05:05:28Z,42.805,6.029,13.3038,4.60118,2470.787,2023-12-07T07:07:57Z
2023-12-07T05:08:31Z,42.805,6.029,13.3041,4.60117,2470.81,2023-12-07T07:11:00Z
2023-12-07T05:11:34Z,42.805,6.029,13.3039,4.60120,2470.847,2023-12-07T07:14:04Z
2023-12-07T05:14:38Z,42.805,6.029,13.3044,4.60120,2470.81,2023-12-07T07:17:07Z
2023-12-07T05:17:41Z,42.805,6.029,13.3041,4.60122,2470.787,2023-12-07T07:20:10Z
2023-12-07T05:20:44Z,42.805,6.029,13.3044,4.60119,2470.81,2023-12-07T07:23:13Z
2023-12-07T05:23:47Z,42.805,6.029,13.3039,4.60121,2470.81,2023-12-07T07:26:16Z
2023-12-07T05:26:50Z,42.805,6.029,13.3040,4.60117,2470.81,2023-12-07T07:29:19Z
2023-12-07T05:29:53Z,42.805,6.029,13.3041,4.60116,2470.824,2023-12-07T07:32:22Z
2023-12-07T05:32:57Z,42.805,6.029,13.3039,4.60119,2470.847,2023-12-07T07:35:26Z
2023-12-07T05:36:00Z,42.805,6.029,13.3039,4.60116,2470.847,2023-12-07T07:38:29Z
2023-12-07T05:39:03Z,42.805,6.029,13.3039,4.60115,2470.833,2023-12-07T07:41:32Z
2023-12-07T05:42:06Z,42.805,6.029,13.3039,4.60116,2470.847,2023-12-07T07:44:35Z
2023-12-07T05:45:09Z,42.805,6.029,13.3041,4.60116,2470.8,2023-12-07T07:47:38Z
2023-12-07T05:48:12Z,42.805,6.029,13.3041,4.60119,2470.81,2023-12-07T07:50:41Z
2023-12-07T05:51:15Z,42.805,6.029,13.3037,4.60117,2470.857,2023-12-07T07:53:44Z
2023-12-07T05:54:18Z,42.805,6.029,13.3041,4.60119,2470.847,2023-12-07T07:56:47Z
2023-12-07T05:57:21Z,42.805,6.029,13.3041,4.60115,2470.81,2023-12-07T07:59:50Z
2023-12-07T06:00:24Z,42.805,6.029,13.3036,4.60117,2470.81,2023-12-07T08:02:54Z
2023-12-07T06:03:28Z,42.805,6.029,13.3039,4.60116,2470.847,2023-12-07T08:05:57Z
2023-12-07T06:06:31Z,42.805,6.029,13.3044,4.60118,2470.81,2023-12-07T08:09:00Z
2023-12-07T06:09:34Z,42.805,6.029,13.3039,4.60115,2470.824,2023-12-07T08:12:03Z
2023-12-07T06:12:37Z,42.805,6.029,13.3037,4.60116,2470.847,2023-12-07T08:15:06Z
2023-12-07T06:15:40Z,42.805,6.029,13.3040,4.60117,2470.8,2023-12-07T08:18:09Z
2023-12-07T06:18:43Z,42.805,6.029,13.3042,4.60119,2470.81,2023-12-07T08:21:12Z
2023-12-07T06:21:46Z,42.805,6.029,13.3040,4.60121,2470.8,2023-12-07T08:24:15Z
2023-12-07T06:24:49Z,42.805,6.029,13.3037,4.60117,2470.824,2023-12-07T08:27:18Z
2023-12-07T06:27:52Z,42.805,6.029,13.3039,4.60119,2470.847,2023-12-07T08:30:21Z
2023-12-07T06:30:55Z,42.805,6.029,13.3039,4.60117,2470.824,2023-12-07T08:33:24Z
2023-12-07T06:33:58Z,42.805,6.029,13.3041,4.60119,2470.81,2023-12-07T08:36:27Z
2023-12-07T06:37:01Z,42.805,6.029,13.3040,4.60117,2470.81,2023-12-07T08:39:30Z
2023-12-07T06:40:04Z,42.805,6.029,13.3042,4.60117,2470.796,2023-12-07T08:42:34Z
2023-12-07T06:43:07Z,42.805,6.029,13.3048,4.60117,2470.787,2023-12-07T08:45:37Z
2023-12-07T06:46:11Z,42.805,6.029,13.3041,4.60117,2470.81,2023-12-07T08:48:40Z
2023-12-07T06:49:14Z,42.805,6.029,13.3046,4.60117,2470.787,2023-12-07T08:51:43Z
2023-12-07T06:52:17Z,42.805,6.029,13.3043,4.60128,2470.8,2023-12-07T08:54:46Z
2023-12-07T06:55:20Z,42.805,6.029,13.3041,4.60117,2470.81,2023-12-07T08:57:49Z
2023-12-07T06:58:23Z,42.805,6.029,13.3041,4.60117,2470.81,2023-12-07T09:00:52Z
2023-12-07T07:01:26Z,42.805,6.029,13.3043,4.60119,2470.833,2023-12-07T09:03:55Z
2023-12-07T07:04:29Z,42.805,6.029,13.3044,4.60122,2470.763,2023-12-07T09:06:58Z
2023-12-07T07:07:32Z,42.805,6.029,13.3039,4.60118,2470.8,2023-12-07T09:10:01Z
2023-12-07T07:10:35Z,42.805,6.029,13.3043,4.60117,2470.787,2023-12-07T09:13:04Z
2023-12-07T07:13:38Z,42.805,6.029,13.3041,4.60117,2470.824,2023-12-07T09:16:07Z
2023-12-07T07:16:41Z,42.805,6.029,13.3041,4.60121,2470.8,2023-12-07T09:19:10Z
2023-12-07T07:19:44Z,42.805,6.029,13.3046,4.60119,2470.773,2023-12-07T09:22:13Z
2023-12-07T07:22:47Z,42.805,6.029,13.3046,4.60117,2470.787,2023-12-07T09:25:17Z
2023-12-07T07:25:51Z,42.805,6.029,13.3045,4.60116,2470.787,2023-12-07T09:28:20Z
2023-12-07T07:28:54Z,42.805,6.029,13.3051,4.60125,2470.763,2023-12-07T09:31:23Z
2023-12-07T07:31:57Z,42.805,6.029,13.3053,4.60125,2470.8,2023-12-07T09:34:26Z
2023-12-07T07:35:00Z,42.805,6.029,13.3062,4.60150,2470.773,2023-12-07T09:37:29Z
2023-12-07T07:38:03Z,42.805,6.029,13.3067,4.60121,2470.81,2023-12-07T09:40:32Z
2023-12-07T07:41:06Z,42.805,6.029,13.3059,4.60160,2470.777,2023-12-07T09:43:35Z
2023-12-07T07:44:09Z,42.805,6.029,13.3060,4.60144,2470.763,2023-12-07T09:46:38Z
2023-12-07T07:47:12Z,42.805,6.029,13.3064,4.60161,2470.8,2023-12-07T09:49:41Z
2023-12-07T07:50:15Z,42.805,6.029,13.3061,4.60165,2470.81,2023-12-07T09:52:44Z
2023-12-07T07:53:18Z,42.805,6.029,13.3063,4.60180,2470.777,2023-12-07T09:55:47Z
2023-12-07T07:56:21Z,42.805,6.029,13.3060,4.60156,2470.787,2023-12-07T09:58:50Z
2023-12-07T07:59:24Z,42.805,6.029,13.3069,4.60149,2470.777,2023-12-07T10:01:53Z
2023-12-07T08:02:27Z,42.805,6.029,13.3053,4.60162,2470.8,2023-12-07T10:04:57Z
2023-12-07T08:05:31Z,42.805,6.029,13.3056,4.60175,2470.787,2023-12-07T10:08:00Z
2023-12-07T08:08:34Z,42.805,6.029,13.3069,4.60173,2470.8,2023-12-07T10:11:03Z
2023-12-07T08:11:37Z,42.805,6.029,13.3059,4.60163,2470.787,2023-12-07T10:14:06Z
2023-12-07T08:14:40Z,42.805,6.029,13.3058,4.60161,2470.824,2023-12-07T10:17:09Z
2023-12-07T08:17:43Z,42.805,6.029,13.3087,4.60150,2470.787,2023-12-07T10:20:12Z
2023-12-07T08:20:46Z,42.805,6.029,13.3058,4.60175,2470.787,2023-12-07T10:23:15Z
2023-12-07T08:23:49Z,42.805,6.029,13.3056,4.60189,2470.763,2023-12-07T10:26:18Z
2023-12-07T08:26:52Z,42.805,6.029,13.3055,4.60178,2470.824,2023-12-07T10:29:21Z
2023-12-07T08:29:55Z,42.805,6.029,13.3063,4.60186,2470.787,2023-12-07T10:32:24Z
2023-12-07T08:32:58Z,42.805,6.029,13.3058,4.60193,2470.74,2023-12-07T10:35:27Z
2023-12-07T08:36:01Z,42.805,6.029,13.3057,4.60160,2470.787,2023-12-07T10:38:30Z
2023-12-07T08:39:04Z,42.805,6.029,13.3051,4.60155,2470.763,2023-12-07T10:41:34Z
2023-12-07T08:42:08Z,42.805,6.029,13.3056,4.60173,2470.81,2023-12-07T10:44:37Z
2023-12-07T08:45:11Z,42.805,6.029,13.3062,4.60180,2470.81,2023-12-07T10:47:40Z
2023-12-07T08:48:14Z,42.805,6.029,13.3049,4.60162,2470.824,2023-12-07T10:50:43Z
2023-12-07T08:51:17Z,42.805,6.029,13.3053,4.60147,2470.787,2023-12-07T10:53:46Z
2023-12-07T08:54:20Z,42.805,6.029,13.3054,4.60150,2470.787,2023-12-07T10:56:49Z
2023-12-07T08:57:23Z,42.805,6.029,13.3052,4.60150,2470.763,2023-12-07T10:59:52Z
2023-12-07T09:00:26Z,42.805,6.029,13.3059,4.60144,2470.787,2023-12-07T11:02:55Z
2023-12-07T09:03:29Z,42.805,6.029,13.3063,4.60170,2470.787,2023-12-07T11:05:58Z
2023-12-07T09:06:32Z,42.805,6.029,13.3054,4.60167,2470.824,2023-12-07T11:09:01Z
2023-12-07T09:09:35Z,42.805,6.029,13.3051,4.60150,2470.787,2023-12-07T11:12:04Z
2023-12-07T09:12:38Z,42.805,6.029,13.3054,4.60151,2470.777,2023-12-07T11:15:07Z
2023-12-07T09:15:41Z,42.805,6.029,13.3053,4.60165,2470.8,2023-12-07T11:18:11Z
2023-12-07T09:18:45Z,42.805,6.029,13.3058,4.60183,2470.787,2023-12-07T11:21:14Z
2023-12-07T09:21:48Z,42.805,6.029,13.3052,4.60150,2470.824,2023-12-07T11:24:17Z
2023-12-07T09:24:51Z,42.805,6.029,13.3051,4.60156,2470.824,2023-12-07T11:27:20Z
2023-12-07T09:27:54Z,42.805,6.029,13.3064,4.60152,2470.81,2023-12-07T11:30:23Z
2023-12-07T09:30:57Z,42.805,6.029,13.3052,4.60160,2470.8,2023-12-07T11:33:26Z
2023-12-07T09:34:00Z,42.805,6.029,13.3056,4.60162,2470.787,2023-12-07T11:36:29Z
2023-12-07T09:37:03Z,42.805,6.029,13.3066,4.60159,2470.81,2023-12-07T11:39:32Z
2023-12-07T09:40:06Z,42.805,6.029,13.3057,4.60162,2470.763,2023-12-07T11:42:35Z
2023-12-07T09:43:09Z,42.805,6.029,13.3051,4.60167,2470.787,2023-12-07T11:45:38Z
2023-12-07T09:46:12Z,42.805,6.029,13.3054,4.60152,2470.787,2023-12-07T11:48:41Z
2023-12-07T09:49:15Z,42.805,6.029,13.3056,4.60166,2470.833,2023-12-07T11:51:44Z
2023-12-07T09:52:18Z,42.805,6.029,13.3053,4.60155,2470.787,2023-12-07T11:54:48Z
2023-12-07T09:55:22Z,42.805,6.029,13.3053,4.60162,2470.81,2023-12-07T11:57:51Z
2023-12-07T09:58:25Z,42.805,6.029,13.3045,4.60158,2470.824,2023-12-07T12:00:54Z
2023-12-07T10:01:28Z,42.805,6.029,13.3049,4.60156,2470.777,2023-12-07T12:03:57Z
2023-12-07T10:04:31Z,42.805,6.029,13.3061,4.60158,2470.81,2023-12-07T12:07:00Z
2023-12-07T10:07:34Z,42.805,6.029,13.3055,4.60180,2470.8,2023-12-07T12:10:03Z
2023-12-07T10:10:37Z,42.805,6.029,13.3053,4.60155,2470.787,2023-12-07T12:13:06Z
2023-12-07T10:13:40Z,42.805,6.029,13.3048,4.60150,2470.81,2023-12-07T12:16:09Z
2023-12-07T10:16:43Z,42.805,6.029,13.3060,4.60173,2470.787,2023-12-07T12:19:12Z
2023-12-07T10:19:46Z,42.805,6.029,13.3050,4.60166,2470.833,2023-12-07T12:22:15Z
2023-12-07T10:22:49Z,42.805,6.029,13.3055,4.60165,2470.787,2023-12-07T12:25:18Z
2023-12-07T10:25:52Z,42.805,6.029,13.3054,4.60167,2470.787,2023-12-07T12:28:21Z
2023-12-07T10:28:55Z,42.805,6.029,13.3056,4.60163,2470.824,2023-12-07T12:31:24Z
2023-12-07T10:31:58Z,42.805,6.029,13.3058,4.60164,2470.787,2023-12-07T12:34:28Z
2023-12-07T10:35:02Z,42.805,6.029,13.3062,4.60167,2470.787,2023-12-07T12:37:31Z
2023-12-07T10:38:05Z,42.805,6.029,13.3061,4.60180,2470.787,2023-12-07T12:40:34Z
2023-12-07T10:41:08Z,42.805,6.029,13.3058,4.60178,2470.824,2023-12-07T12:43:37Z
2023-12-07T10:44:11Z,42.805,6.029,13.3065,4.60184,2470.787,2023-12-07T12:46:40Z
2023-12-07T10:47:14Z,42.805,6.029,13.3056,4.60187,2470.81,2023-12-07T12:49:43Z
2023-12-07T10:50:17Z,42.805,6.029,13.3063,4.60169,2470.787,2023-12-07T12:52:46Z
2023-12-07T10:53:20Z,42.805,6.029,13.3049,4.60161,2470.81,2023-12-07T12:55:49Z
2023-12-07T10:56:23Z,42.805,6.029,13.3059,4.60170,2470.81,2023-12-07T12:58:52Z
2023-12-07T10:59:26Z,42.805,6.029,13.3053,4.60163,2470.81,2023-12-07T13:01:55Z
2023-12-07T11:02:29Z,42.805,6.029,13.3061,4.60183,2470.787,2023-12-07T13:04:58Z
2023-12-07T11:05:32Z,42.805,6.029,13.3054,4.60185,2470.81,2023-12-07T13:08:01Z
2023-12-07T11:08:35Z,42.805,6.029,13.3064,4.60185,2470.81,2023-12-07T13:11:05Z
2023-12-07T11:11:38Z,42.805,6.029,13.3054,4.60179,2470.81,2023-12-07T13:14:08Z
2023-12-07T11:14:42Z,42.805,6.029,13.3056,4.60176,2470.824,2023-12-07T13:17:11Z
2023-12-07T11:17:45Z,42.805,6.029,13.3062,4.60173,2470.824,2023-12-07T13:20:14Z
2023-12-07T11:20:48Z,42.805,6.029,13.3063,4.60173,2470.81,2023-12-07T13:23:17Z
2023-12-07T11:23:51Z,42.805,6.029,13.3048,4.60157,2470.833,2023-12-07T13:26:20Z
2023-12-07T11:26:54Z,42.805,6.029,13.3052,4.60173,2470.824,2023-12-07T13:29:23Z
2023-12-07T11:29:57Z,42.805,6.029,13.3053,4.60173,2470.824,2023-12-07T13:32:26Z
2023-12-07T11:32:59Z,42.805,6.029,13.3054,4.60175,2470.787,2023-12-07T13:35:28Z
2023-12-07T11:36:02Z,42.805,6.029,13.3051,4.60167,2470.787,2023-12-07T13:38:31Z
2023-12-07T11:39:05Z,42.805,6.029,13.3058,4.60163,2470.81,2023-12-07T13:41:35Z
2023-12-07T11:42:09Z,42.805,6.029,13.3060,4.60149,2470.824,2023-12-07T13:44:38Z
2023-12-07T11:45:12Z,42.805,6.029,13.3049,4.60160,2470.81,2023-12-07T13:47:41Z
2023-12-07T11:48:15Z,42.805,6.029,13.3046,4.60155,2470.81,2023-12-07T13:50:44Z
2023-12-07T11:51:18Z,42.805,6.029,13.3055,4.60175,2470.81,2023-12-07T13:53:47Z
2023-12-07T11:54:21Z,42.805,6.029,13.3056,4.60170,2470.81,2023-12-07T13:56:50Z
2023-12-07T11:57:24Z,42.805,6.029,13.3055,4.60162,2470.824,2023-12-07T13:59:53Z
2023-12-07T12:00:27Z,42.805,6.029,13.3057,4.60172,2470.796,2023-12-07T14:02:56Z
2023-12-07T12:03:30Z,42.805,6.029,13.3056,4.60140,2470.847,2023-12-07T14:05:59Z
2023-12-07T12:06:33Z,42.805,6.029,13.3053,4.60162,2470.833,2023-12-07T14:09:02Z
2023-12-07T12:09:36Z,42.805,6.029,13.3058,4.60155,2470.833,2023-12-07T14:12:05Z
2023-12-07T12:12:39Z,42.805,6.029,13.3051,4.60169,2470.833,2023-12-07T14:15:08Z
2023-12-07T12:15:42Z,42.805,6.029,13.3057,4.60164,2470.833,2023-12-07T14:18:12Z
2023-12-07T12:18:46Z,42.805,6.029,13.3052,4.60160,2470.833,2023-12-07T14:21:15Z
2023-12-07T12:21:49Z,42.805,6.029,13.3056,4.60165,2470.81,2023-12-07T14:24:18Z
2023-12-07T12:24:52Z,42.805,6.029,13.3049,4.60171,2470.833,2023-12-07T14:27:21Z
2023-12-07T12:27:55Z,42.805,6.029,13.3064,4.60146,2470.833,2023-12-07T14:30:24Z
2023-12-07T12:30:58Z,42.805,6.029,13.3059,4.60173,2470.833,2023-12-07T14:33:27Z
2023-12-07T12:34:01Z,42.805,6.029,13.3060,4.60177,2470.857,2023-12-07T14:36:30Z
2023-12-07T12:37:04Z,42.805,6.029,13.3046,4.60153,2470.857,2023-12-07T14:39:33Z
2023-12-07T12:40:07Z,42.805,6.029,13.3054,4.60168,2470.833,2023-12-07T14:42:36Z
2023-12-07T12:43:10Z,42.805,6.029,13.3051,4.60160,2470.833,2023-12-07T14:45:39Z
2023-12-07T12:46:13Z,42.805,6.029,13.3056,4.60167,2470.847,2023-12-07T14:48:42Z
2023-12-07T12:49:16Z,42.805,6.029,13.3056,4.60173,2470.857,2023-12-07T14:51:45Z
2023-12-07T12:52:19Z,42.805,6.029,13.3058,4.60167,2470.857,2023-12-07T14:54:48Z
2023-12-07T12:55:22Z,42.805,6.029,13.3069,4.60162,2470.833,2023-12-07T14:57:52Z
2023-12-07T12:58:26Z,42.805,6.029,13.3064,4.60187,2470.824,2023-12-07T15:00:55Z
2023-12-07T13:01:29Z,42.805,6.029,13.3051,4.60163,2470.847,2023-12-07T15:03:58Z
2023-12-07T13:04:32Z,42.805,6.029,13.3063,4.60169,2470.81,2023-12-07T15:07:01Z
2023-12-07T13:07:35Z,42.805,6.029,13.3062,4.60150,2470.857,2023-12-07T15:10:04Z
2023-12-07T13:10:38Z,42.805,6.029,13.3047,4.60144,2470.847,2023-12-07T15:13:07Z
2023-12-07T13:13:41Z,42.805,6.029,13.3052,4.60163,2470.833,2023-12-07T15:16:10Z
2023-12-07T13:16:44Z,42.805,6.029,13.3051,4.60170,2470.857,2023-12-07T15:19:13Z
2023-12-07T13:19:47Z,42.805,6.029,13.3049,4.60163,2470.857,2023-12-07T15:22:16Z
2023-12-07T13:22:50Z,42.805,6.029,13.3058,4.60165,2470.894,2023-12-07T15:25:19Z
2023-12-07T13:25:53Z,42.805,6.029,13.3059,4.60161,2470.871,2023-12-07T15:28:22Z
2023-12-07T13:28:56Z,42.805,6.029,13.3053,4.60205,2470.857,2023-12-07T15:31:25Z
2023-12-07T13:31:58Z,42.805,6.029,13.3055,4.60163,2470.857,2023-12-07T15:34:27Z
2023-12-07T13:35:01Z,42.805,6.029,13.3046,4.60181,2470.894,2023-12-07T15:37:30Z
2023-12-07T13:38:04Z,42.805,6.029,13.3056,4.60169,2470.894,2023-12-07T15:40:33Z
2023-12-07T13:41:07Z,42.805,6.029,13.3056,4.60162,2470.857,2023-12-07T15:43:37Z
2023-12-07T13:44:11Z,42.805,6.029,13.3058,4.60167,2470.847,2023-12-07T15:46:40Z
2023-12-07T13:47:14Z,42.805,6.029,13.3048,4.60169,2470.857,2023-12-07T15:49:43Z
2023-12-07T13:50:17Z,42.805,6.029,13.3076,4.60163,2470.857,2023-12-07T15:52:46Z
2023-12-07T13:53:20Z,42.805,6.029,13.3052,4.60160,2470.871,2023-12-07T15:55:49Z
2023-12-07T13:56:23Z,42.805,6.029,13.3058,4.60170,2470.833,2023-12-07T15:58:52Z
2023-12-07T13:59:26Z,42.805,6.029,13.3060,4.60173,2470.894,2023-12-07T16:01:55Z
2023-12-07T14:02:29Z,42.805,6.029,13.3067,4.60181,2470.857,2023-12-07T16:04:58Z
2023-12-07T14:05:32Z,42.805,6.029,13.3070,4.60193,2470.871,2023-12-07T16:08:01Z
2023-12-07T14:08:35Z,42.805,6.029,13.3069,4.60167,2470.857,2023-12-07T16:11:04Z
2023-12-07T14:11:38Z,42.805,6.029,13.3069,4.60180,2470.871,2023-12-07T16:14:07Z
2023-12-07T14:14:41Z,42.805,6.029,13.3065,4.60165,2470.894,2023-12-07T16:17:10Z
2023-12-07T14:17:44Z,42.805,6.029,13.3050,4.60156,2470.871,2023-12-07T16:20:14Z
2023-12-07T14:20:48Z,42.805,6.029,13.3080,4.60201,2470.894,2023-12-07T16:23:17Z
2023-12-07T14:23:51Z,42.805,6.029,13.3059,4.60208,2470.847,2023-12-07T16:26:20Z
2023-12-07T14:26:54Z,42.805,6.029,13.3051,4.60198,2470.88,2023-12-07T16:29:23Z
2023-12-07T14:29:57Z,42.805,6.029,13.3076,4.60178,2470.894,2023-12-07T16:32:26Z
2023-12-07T14:33:00Z,42.805,6.029,13.3067,4.60190,2470.857,2023-12-07T16:35:29Z
2023-12-07T14:36:03Z,42.805,6.029,13.3065,4.60183,2470.871,2023-12-07T16:38:32Z
2023-12-07T14:39:06Z,42.805,6.029,13.3058,4.60183,2470.88,2023-12-07T16:41:35Z
2023-12-07T14:42:09Z,42.805,6.029,13.3098,4.60155,2470.88,2023-12-07T16:44:38Z
2023-12-07T14:45:12Z,42.805,6.029,13.3051,4.60185,2470.857,2023-12-07T16:47:41Z
2023-12-07T14:48:15Z,42.805,6.029,13.3061,4.60154,2470.871,2023-12-07T16:50:44Z
2023-12-07T14:51:18Z,42.805,6.029,13.3053,4.60164,2470.88,2023-12-07T16:53:47Z
2023-12-07T14:54:21Z,42.805,6.029,13.3061,4.60193,2470.917,2023-12-07T16:56:50Z
2023-12-07T14:57:24Z,42.805,6.029,13.3062,4.60159,2470.857,2023-12-07T16:59:54Z
2023-12-07T15:00:28Z,42.805,6.029,13.3061,4.60185,2470.857,2023-12-07T17:02:57Z